Regional Weather Roundup
Issued by NWS Wakefield, VA

Home | Current Version | Previous Version | Text Only | Print | Product List | Glossary On
Versions: 1 2 3 4 5 6 7 8 9 10 11 12 13 14 15 16 17 18 19 20 21 22 23 24 25 26 27 28 29 30 31 32 33 34 35 36 37 38 39 40 41 42 43 44 45 46 47 48 49 50
000
ASUS41 KAKQ 280015
RWRAKQ

REGIONAL WEATHER ROUNDUP
NATIONAL WEATHER SERVICE WAKEFIELD VA
800 PM EDT WED JUL 27 2016

Note: "fair" indicates few or no clouds below 12,000 feet with no
significant weather and/or obstructions to visibility. * = Denotes
station may not report precipitation (e.g., rain,snow,etc.),
thunder or fog.

VAZ042-051-052>054-056-280100-
NORTHERN VIRGINIA

CITY           SKY/WX    TMP DP  RH WIND       PRES   REMARKS
WASH NATIONAL  MOCLDY    90  69  50 S8        29.91R
DULLES         MOCLDY    88  67  49 S5        29.91R
FORT BELVOIR   FAIR      88  70  55 S2        29.90R
QUANTICO       FAIR      86  74  67 NW6       29.91R
FREDERICKSBRG*   N/A     85  75  71 CALM      29.90F
STAFFORD*      FAIR      83  75  78 CALM      29.95F
WARRENTON      FAIR      86  67  52 SW3       29.91F
CULPEPER*      FAIR      85  75  72 NW3       29.93S
MANASSAS*      MOCLDY    88  72  58 CALM      29.92R
LEESBURG*      FAIR      88  73  62 CALM      29.93S HX  96
WINCHESTER     FAIR      77  68  73 SW6       29.95S
FRONT ROYAL*   FAIR      72  70  94 SW5       29.94F
LURAY*         MOCLDY    75  75 100 CALM      29.98S
$$

VAZ048-049-060>072-079>083-280100-
CENTRAL AND SOUTH CENTRAL VIRGINIA

CITY           SKY/WX    TMP DP  RH WIND       PRES   REMARKS
RICHMOND       CLOUDY    85  76  74 NE5       29.91S
CHESTERFIELD*  MOCLDY    82  66  57 NW9       29.95R
PETERSBURG*    LGT RAIN  84  78  82 NW6       29.92F
HANOVER        FAIR      83  76  79 MISG      29.94R
TAPPAHANNOCK*  FAIR      80  73  78 SE3       29.93S
QUINTON*       MOCLDY    82  75  81 E10G17    29.91S
CHARLOTTSVILLE FAIR      79  74  84 VRB3      29.94F
GORDONSVILLE*  FAIR      81  73  78 SW5       29.93S
ORANGE*          N/A     81  75  83 S3        29.95S
LOUISA*        FAIR      82  75  78 W5        29.94R
BUMPASS*       FAIR      80  77  92 W3        29.94R
FARMVILLE*     FAIR     N/A N/A N/A S3        29.93R
CREWE*         NOT AVBL
FORT PICKETT*  FAIR      74  73  97 CALM      29.92F
CHASE CITY*    MOCLDY    78  76  94 CALM      29.97R
CLARKSVILLE*   MOCLDY    75  75 100 S7        29.97R
SOUTH HILL*    MOCLDY    82  76  82 SW14G21   30.01R
LAWRENCEVILLE* FAIR      85  77  78 CALM      29.93S HX  95
EMPORIA*       FAIR      82  77  83 CALM      29.93F
$$

VAZ088>098-280100-
SOUTHEAST VIRGINIA

CITY           SKY/WX    TMP DP  RH WIND       PRES   REMARKS
NORFOLK        MOCLDY    87  76  69 E7        29.91R HX  97
VIRGINIA BEACH MOCLDY    89  77  67 SE5       29.91S HX 101
NORFOLK NAVAL  MOCLDY    87  75  67 NE6       29.92R HX  96
WEST POINT*    MOCLDY    79  69  70 NE5       29.93S
SALUDA*        FAIR      74  73  98 S6        29.91F
NEWPORT NEWS   FAIR      83  74  74 NE3       29.91R
LANGLEY AFB    FAIR      85  77  77 N6        29.90S HX  95
FORT EUSTIS    MOCLDY    85  74  69 E7        29.88F THUNDER
WILLIAMSBURG*  FAIR      82  73  74 CALM      29.91F
HR EXEC AP*    FAIR      84  77  79 NW5       29.93R
FRANKLIN*      FAIR      86  79  81 CALM      29.91S HX  99
US460-WAKEFLD  FAIR      84  79  85 CALM      29.90F HX  96
$$

VAZ020-022-025-037-045-280100-
WEST CENTRAL AND SOUTHWEST VIRGINIA

CITY           SKY/WX    TMP DP  RH WIND       PRES   REMARKS
STAUNTON*      FAIR      73  72  97 CALM      30.02S
WAYNESBORO*    FAIR      73  72  95 S5        30.01S
HOT SPRINGS VA FAIR      73  66  78 W7        30.14R
LYNCHBURG      FAIR      76  74  93 S3        30.00R
DANVILLE       FAIR      75  73  93 CALM      29.96F
SOUTH BOSTON*  FAIR     N/A N/A N/A E3        29.96R
MARTINSVILLE   FAIR      74  72  91 CALM      30.01F
ROANOKE        FAIR      77  74  90 E5        30.02R
BLACKSBURG     FAIR      76  75  96 CALM      30.08S
DUBLIN*        FAIR      79  74  85 CALM      30.06S
MARION*        FAIR      80  73  78 CALM      30.08F
HILLSVILLE*    FAIR      74  73  96 CALM      30.06F
RICHLANDS*     MOCLDY    73  73 100 CALM      30.07S
WISE*            N/A     72  70  94 CALM      30.07S
ABINGDON*      FAIR      78  67  69 SE5       30.02F
$$

MDZ021>025-VAZ099-100-280100-
SOUTHERN MARYLAND AND THE DELMARVA PENINSULA

CITY           SKY/WX    TMP DP  RH WIND       PRES   REMARKS
PATUXENT RIVER CLOUDY    85  71  63 S6        29.90F
BAY BRIDGE APT PTCLDY    88  72  58 SE3       29.90R
LEONARDTOWN      N/A     82  70  65 MISG        N/A
DOVER          PTCLDY    83  77  82 SE5       29.89R
GEORGETOWN     PTCLDY    88  74  63 CALM      29.90S HX  96
EASTON         NOT AVBL
CAMBRIDGE      CLOUDY    82  73  74 CALM      29.90S
SALISBURY      MOCLDY    83  79  88 SW3       29.90S
OCEAN CITY     CLOUDY    81  75  82 S3        29.90S
WALLOPS ISLAND FAIR      82  77  84 SE3       29.91F
ACCOMACK*      FAIR      81  75  83 CALM      29.91S
$$

NCZ012>017-030>032-280100-
NORTH CENTRAL AND EASTERN NORTH CAROLINA

CITY           SKY/WX    TMP DP  RH WIND       PRES   REMARKS
ROANOKE RAPIDS FAIR      81  77  89 CALM      29.92R
RALEIGH        MOCLDY    84  71  65 VRB7      29.95R
ELIZABETH CITY PTCLDY    88  79  74 E8        29.91R HX 103
AHOSKIE*       CLOUDY    83  81  94 CALM      29.91F HX  96
EDENTON*       PTCLDY    90  76  65 CALM      29.94R HX 101
CURRITUCK*     PTCLDY    88  80  76 CALM      29.92S HX 104
KILL DEVIL HLS PTCLDY    88  78  70 SE5       29.90S HX 101
MANTEO           N/A     87  75  69 SW10      29.92R HX  96
CAPE HATTERAS  CLOUDY    84  80  88 SW9       29.94R HX  97
TARBORO*       FAIR      87  82  83 CALM      29.91F HX 106
GOLDSBORO      CLOUDY    93  75  55 W6        29.89R HX 104
WASHINGTON     CLOUDY    81  76  85 SE8       29.93R
GREENVILLE     PTCLDY    88  79  74 CALM      29.92F HX 102
NEW BERN       CLEAR     88  77  69 S6        29.92R HX 100
WILMINGTON     CLEAR     87  76  69 SW9       29.94R HX  97
$$

VAZ048-280100-
ELSEWHERE

CITY           SKY/WX    TMP DP  RH WIND       PRES   REMARKS
HARRISBURG PA  PTCLDY    86  71  60 S3        29.90R
BALTIMORE      MOCLDY    88  70  55 SE6       29.90R
ANNAPOLIS      PTCLDY    87  73  62 S6        29.90R
ANDREWS AFB    FAIR      83  74  72 S3        29.91R
PHILADELPHIA   PTCLDY    90  62  39 NW9       29.89R
GREENSBORO     TSTM      74  71  91 NE14G21   29.97F FOG
ROCKY MOUNT    CLOUDY    85  81  88 CALM      29.91S HX 100
$$

VAZ100-280100-
MARINE

STATION/POSITION TIME  TEMP    WIND        PRES    WAVE   SWELL
                       AIR SEA DIR/SP/G            HT/PER HT/PER
                 (UTC) (F)     (DEG/KT/KT) (MB)    (FT/S) (FT/S)
BRANDYWINE LGT   2300   78                   N/A
CAPE MAY NJ      2300   82 72                N/A
LEWES DE         2300   85 77                N/A
OCEAN-CITY-INLET 2300   77 73                N/A
WACHAPREAGUE VA  2300   83 89                N/A
THOMAS POINT MD  0000   87 85  150/  4/  4 1014.0R
GOOSES REEF MD   0000   89 87  210/  2/  4 1013.5S   0
COVE POINT MD    2300   88                   N/A
SOLOMONS ISLAND  2300   88 86                N/A
BISHOPS HEAD MD  2300   90                   N/A
PINEY POINT MD   2324          220/ 10/ 11   N/A
POTOMAC MD       0000   83 87  240/ 10/ 14 1011.5F   1/ 2
CAMBRIDGE MD     2300   91 87                N/A
LEWISETTA VA     2300   82 89                N/A
RAPPAHANNOCK LGT 2324          280/ 14/ 15   N/A
STINGRAY PT      0000   80 89  180/  4/  4 1013.2F   1
YORK RVR RNG VA  2300   87                   N/A
YORKTOWN VA      2300   86 85                N/A
JAMESTOWN VA     0000   84 90   70/  6/ 12   N/A     0
DOMINION TERM VA 2300   88                   N/A
KIPTOPEKE VA     2300      79                N/A
CHES BAY BRIDGE  2300   85 73                N/A
CAPE HENRY VA    2300   85                   N/A
WILLOUBY STN VA  2300   85                   N/A
CAPE HENRY BUOY  2312      80                N/A     1/ 4
1ST LANDING BUOY 0000   81 78  170/  8/  8 1012.5R   1
CAPE CHARLES BUO 2326      81                N/A     1/ 5
OFFSHORE WE BUOY 2321      85                N/A     2/ 6
64NM E OF VA BCH 2350   83 84  180/  6/  6 1013.2R   2/ 6   2/ 6
DUCK PIER NC     2300   81 68                N/A
44100 DUCK FRF   2305      80                N/A     1/ 5
44056 DUCK FRF   2311      76                N/A     1/ 8
OREGON INLET NC  2300   83 82                N/A
HATTERAS NC      2300   85 84                N/A
DIAMOND SHLS NC  2350   85 85  250/ 12/ 14 1013.7R   3/ 6   2/ 9
CAPE LOOKOUT NC  0000   85     230/  9/ 12 1013.8R
$$



USA.gov is the U.S. government's official web portal to all federal, state and local government web resources and services.